Orlando, FL

3:24 PM EDT on July 21, 2018 (GMT -0400)
Executive

Weather History for KORL - April, 2018

Change the Weather History Date:

Monday, April 16, 2018

  Actual Average Record
Temperature  
Mean Temperature 64 °F -  
Max Temperature 71 °F 80 °F 89 °F (2011)
Min Temperature 57 °F 60 °F 46 °F (2007)
Degree Days  
Heating Degree Days 1    
Growing Degree Days 14 (Base 50)    
Moisture  
Dew Point 46 °F    
Average Humidity 56    
Maximum Humidity 81    
Minimum Humidity 32    
Precipitation  
Precipitation 0.00 in - - ()
Sea Level Pressure  
Sea Level Pressure 30.06 in    
Wind  
Wind Speed 13 mph (West)    
Max Wind Speed 22 mph    
Max Gust Speed 29 mph    
Visibility 10 miles    
Events      
Averages and records for this station are not official NWS values.
T = Trace of Precipitation, MM = Missing Value Source: NWS Daily Summary

Daily Weather History Graph

Daily Weather History Graph

Search for Another Location

Airport or City:

Astronomy

Apr. 16, 2018 Rise Set
Actual Time 6:58 AM EDT 7:51 PM EDT
Civil Twilight 6:34 AM EDT 8:15 PM EDT
Nautical Twilight 6:06 AM EDT 8:44 PM EDT
Astronomical Twilight 5:36 AM EDT 9:13 PM EDT
Moon 7:36 AM EDT (4/16) 8:40 PM EDT (4/16)
Length of Visible Light 13h 41m
Length of Day
12h 52m
New Moon, 0% of the Moon is Illuminated
Apr 16
New Moon
Apr 22
First Quarter
Apr 29
Full
May 7
Last Quarter
May 15
New

Hourly Weather History & Observations

Time (EDT) Temp. Dew Point Humidity Pressure Visibility Wind Dir Wind Speed Gust Speed Precip Events Conditions
12:53 AM 63.0 °F 57.0 °F 81% 30.00 in 10.0 mi WSW 10.4 mph - N/A   Clear
1:53 AM 63.0 °F 55.9 °F 78% 30.00 in 10.0 mi WSW 9.2 mph - N/A   Partly Cloudy
2:53 AM 63.0 °F 55.9 °F 78% 29.99 in 10.0 mi WSW 8.1 mph - N/A   Overcast
3:53 AM 64.0 °F 55.9 °F 75% 29.99 in 10.0 mi WSW 9.2 mph - N/A   Overcast
4:53 AM 63.0 °F 55.9 °F 78% 30.01 in 10.0 mi West 9.2 mph - N/A   Mostly Cloudy
5:53 AM 63.0 °F 53.1 °F 70% 30.01 in 10.0 mi West 9.2 mph - N/A   Clear
6:53 AM 62.1 °F 50.0 °F 65% 30.04 in 10.0 mi NW 19.6 mph 28.8 mph N/A   Mostly Cloudy
7:53 AM 60.1 °F 48.0 °F 64% 30.08 in 10.0 mi NW 17.3 mph 24.2 mph N/A   Scattered Clouds
8:53 AM 60.1 °F 46.0 °F 60% 30.12 in 10.0 mi NW 15.0 mph 26.5 mph N/A   Scattered Clouds
9:53 AM 57.9 °F 39.0 °F 49% 30.13 in 10.0 mi NW 20.7 mph 27.6 mph N/A   Clear
10:53 AM 60.1 °F 37.0 °F 42% 30.13 in 10.0 mi WNW 13.8 mph 27.6 mph N/A   Clear
11:53 AM 62.1 °F 35.1 °F 37% 30.13 in 10.0 mi WNW 19.6 mph 26.5 mph N/A   Clear
12:53 PM 64.0 °F 36.0 °F 35% 30.11 in 10.0 mi WNW 21.9 mph 26.5 mph N/A   Clear
1:53 PM 66.9 °F 37.0 °F 33% 30.09 in 10.0 mi West 15.0 mph 27.6 mph N/A   Clear
2:53 PM 69.1 °F 37.9 °F 32% 30.06 in 10.0 mi WNW 15.0 mph 26.5 mph N/A   Clear
3:53 PM 70.0 °F 39.0 °F 32% 30.04 in 10.0 mi WNW 20.7 mph 28.8 mph N/A   Clear
4:53 PM 71.1 °F 43.0 °F 36% 30.03 in 10.0 mi West 17.3 mph 25.3 mph N/A   Clear
5:53 PM 69.1 °F 44.1 °F 40% 30.02 in 10.0 mi West 12.7 mph - N/A   Clear
6:53 PM 66.9 °F 44.1 °F 44% 30.04 in 10.0 mi West 16.1 mph 24.2 mph N/A   Clear
7:53 PM 64.0 °F 46.0 °F 52% 30.05 in 10.0 mi West 13.8 mph - N/A   Clear
8:53 PM 63.0 °F 48.9 °F 60% 30.07 in 10.0 mi West 15.0 mph - N/A   Clear
9:53 PM 62.1 °F 50.0 °F 65% 30.10 in 10.0 mi West 9.2 mph - N/A   Clear
10:53 PM 61.0 °F 50.0 °F 67% 30.12 in 10.0 mi West 9.2 mph - N/A   Clear
11:53 PM 60.1 °F 51.1 °F 72% 30.12 in 10.0 mi West 9.2 mph - N/A   Clear